Tracking 22879 objects as of 21-Apr-2021
HD Live streaming from Space Station
objects crossing your sky now

DELTA 1 DEB

Track DELTA 1 DEB now!
10-day predictions


NORAD ID: 7182
Int'l Code: 1973-086ET
Perigee: 1,103.5 km
Apogee: 1,631.0 km
Inclination: 102.5 °
Period: 112.9 minutes
Semi major axis: 7738 km
RCS: 0.0751 m2 (small)
Launch date: November 6, 1973
Source: United States (US)
Launch site: AIR FORCE WESTERN TEST RANGE (AFWTR)

Note: This is SATELLITE DEBRIS
aabbcc
Your satellite tracking list
Your tracking list is empty




NASA's NSSDC Master Catalog

Two Line Element Set (TLE):
1 07182U 73086ET  21111.46829073 -.00000295  00000-0 -88636-3 0  9999
2 07182 102.4957  61.3137 0340797 299.7628 179.3908 12.75380539447748
Source of the keplerian elements: AFSPC